Location: State Line Observation Field
(36.5320°N, 77.5360°W)
Time: 10:55:46
(UTC-05:00)

N. Korean satellite - Visible Passes

Search period start: 08 March 2021 00:00
Search period end: 18 March 2021 01:00
Orbit: 451 x 502 km, 97.2° (Epoch: 07 March)

Date Brightness Start Highest point End Pass type
(mag) Time Alt. Az. Time Alt. Az. Time Alt. Az.
08 Mar 9.9 04:32:19 10° ENE 04:33:46 12° E 04:35:14 10° ESE visible
09 Mar 6.5 05:36:50 10° N 05:40:27 82° WNW 05:44:04 10° SSW visible
10 Mar 8.0 05:10:15 10° NNE 05:13:39 40° E 05:17:06 10° S visible
11 Mar 9.6 04:44:15 10° NE 04:46:47 18° E 04:49:19 10° SE visible
12 Mar 6.7 05:49:48 10° N 05:53:20 52° WNW 05:56:53 10° SSW visible
13 Mar 7.1 05:22:58 10° NNE 05:26:35 63° E 05:30:12 10° S visible
14 Mar 8.9 05:56:37 10° NE 05:59:43 26° E 06:02:50 10° SSE visible
15 Mar 10.0 05:31:17 10° ENE 05:32:46 12° E 05:34:14 10° ESE visible
16 Mar 6.6 06:35:46 10° N 06:39:25 84° WNW 06:43:05 10° SSW visible
17 Mar 8.1 06:09:08 10° NNE 06:12:35 39° E 06:16:03 10° S visible
